DLH1304 EDDF-LTFM

Flight info

Callsign DLH1304
Flight time 3h 2m
Altitude 31000
Route CINDY2D CINDY Z74 HAREM DCT ASLEP DCT TAKUT L603 BESNI/N0434F390 L605 MIQ DCT ALUTU DCT BIBAG DCT ESEGA DCT VELOM DCT GOTAR DCT NALOX DCT BABIT DCT ESIRI DCT ETIDA T390 RILEX
Aircraft A319/M-SDE2E3FGIJ1LORWXYZ/HB1

Departure

Time 2026-04-17 06:30
Airport Frankfurt Main Airport (EDDF)

Arrival

Time 2026-04-17 09:33
Airport İstanbul Airport (LTFM)
Time Latitude Longitude Altitude Speed Heading
2026-04-17 04:58 50.03620 8.53798 348 ft 0 kts 160°
2026-04-17 06:26 50.03615 8.53801 349 ft 1 kts 160°
2026-04-17 06:26 50.03593 8.53814 349 ft 4 kts 160°
2026-04-17 06:26 50.03548 8.53819 349 ft 8 kts 208°
2026-04-17 06:26 50.03518 8.53724 349 ft 11 kts 250°
2026-04-17 06:27 50.03486 8.53594 349 ft 14 kts 249°
2026-04-17 06:27 50.03449 8.53437 349 ft 17 kts 250°
2026-04-17 06:27 50.03404 8.53248 349 ft 19 kts 250°
2026-04-17 06:27 50.03356 8.53048 349 ft 19 kts 249°
2026-04-17 06:28 50.03311 8.52861 349 ft 14 kts 250°
2026-04-17 06:28 50.03279 8.52726 349 ft 11 kts 250°
2026-04-17 06:28 50.03233 8.52618 349 ft 11 kts 216°
2026-04-17 06:28 50.03176 8.52604 349 ft 0 kts 180°
2026-04-17 06:29 50.03175 8.52604 349 ft 1 kts 180°
2026-04-17 06:29 50.03148 8.52605 349 ft 9 kts 180°
2026-04-17 06:29 50.02823 8.52608 349 ft 86 kts 180°
2026-04-17 06:29 50.01979 8.52620 351 ft 152 kts 180°
2026-04-17 06:30 50.00834 8.52607 790 ft 171 kts 181°
2026-04-17 06:30 49.99657 8.52572 1612 ft 170 kts 181°
2026-04-17 06:30 49.98521 8.52559 2516 ft 165 kts 180°
2026-04-17 06:30 49.97338 8.52627 3111 ft 179 kts 167°
2026-04-17 06:31 49.96250 8.53650 3642 ft 196 kts 130°
2026-04-17 06:31 49.95507 8.55586 3966 ft 223 kts 118°
2026-04-17 06:31 49.94753 8.57784 4766 ft 234 kts 118°
2026-04-17 06:31 49.94158 8.60087 5809 ft 234 kts 104°
2026-04-17 06:32 49.93928 8.62618 6527 ft 246 kts 94°
2026-04-17 06:32 49.93831 8.65334 7103 ft 264 kts 92°
2026-04-17 06:32 49.93642 8.68268 7796 ft 279 kts 106°
2026-04-17 06:32 49.92656 8.70817 8621 ft 285 kts 137°
2026-04-17 06:33 49.91064 8.72650 9549 ft 287 kts 147°
2026-04-17 06:33 49.89439 8.74482 10388 ft 294 kts 140°
2026-04-17 06:33 49.88004 8.76855 11025 ft 308 kts 127°
2026-04-17 06:33 49.86837 8.79737 11508 ft 326 kts 119°
2026-04-17 06:34 49.85722 8.82857 12179 ft 335 kts 118°
2026-04-17 06:34 49.84597 8.86036 12982 ft 340 kts 118°
2026-04-17 06:34 49.83463 8.89217 13796 ft 343 kts 118°
2026-04-17 06:34 49.82299 8.92453 14577 ft 347 kts 118°
2026-04-17 06:35 49.81115 8.95719 15317 ft 351 kts 118°
2026-04-17 06:35 49.79923 8.98993 16020 ft 356 kts 118°
2026-04-17 06:35 49.78700 9.02348 16722 ft 361 kts 118°
2026-04-17 06:35 49.77460 9.05761 17413 ft 365 kts 117°
2026-04-17 06:36 49.76389 9.09290 18086 ft 369 kts 110°
2026-04-17 06:36 49.75566 9.13075 18744 ft 372 kts 104°
2026-04-17 06:36 49.74828 9.16897 19370 ft 377 kts 110°
2026-04-17 06:36 49.73603 9.20533 20023 ft 382 kts 123°
2026-04-17 06:37 49.71961 9.23758 20672 ft 385 kts 130°
2026-04-17 06:37 49.70181 9.26874 21277 ft 389 kts 131°
2026-04-17 06:37 49.68383 9.29971 21850 ft 394 kts 130°
2026-04-17 06:37 49.66546 9.33164 22423 ft 398 kts 130°
2026-04-17 06:38 49.64722 9.36363 22981 ft 402 kts 130°
2026-04-17 06:38 49.62936 9.39736 23518 ft 406 kts 123°
2026-04-17 06:38 49.61510 9.43450 24064 ft 408 kts 113°
2026-04-17 06:38 49.60450 9.47525 24540 ft 412 kts 106°
2026-04-17 06:39 49.59551 9.51747 25030 ft 416 kts 105°
2026-04-17 06:39 49.58682 9.55958 25588 ft 418 kts 105°
2026-04-17 06:39 49.57786 9.60243 26291 ft 417 kts 105°
2026-04-17 06:39 49.56889 9.64468 26972 ft 416 kts 105°
2026-04-17 06:40 49.55973 9.68728 27629 ft 415 kts 106°
2026-04-17 06:40 49.55060 9.72941 28256 ft 414 kts 106°
2026-04-17 06:40 49.54144 9.77140 28858 ft 414 kts 107°
2026-04-17 06:40 49.53053 9.81235 29422 ft 415 kts 114°
2026-04-17 06:41 49.51678 9.85107 29943 ft 418 kts 121°
2026-04-17 06:41 49.49991 9.88790 30415 ft 420 kts 127°
2026-04-17 06:41 49.48182 9.92245 30846 ft 422 kts 129°
2026-04-17 06:41 49.46283 9.95781 31191 ft 425 kts 129°
2026-04-17 06:42 49.44406 9.99278 31231 ft 426 kts 129°
2026-04-17 06:42 49.40647 10.06342 31235 ft 427 kts 128°
2026-04-17 06:43 49.36919 10.13372 31232 ft 427 kts 128°
2026-04-17 06:43 49.33181 10.20402 31234 ft 427 kts 128°
2026-04-17 06:44 49.29426 10.27442 31231 ft 427 kts 128°
2026-04-17 06:44 49.25665 10.34471 31232 ft 426 kts 128°
2026-04-17 06:45 49.21693 10.41206 31235 ft 427 kts 135°
2026-04-17 06:45 49.17430 10.47534 31235 ft 427 kts 135°
2026-04-17 06:46 49.13161 10.53848 31231 ft 428 kts 135°
2026-04-17 06:46 49.08909 10.60155 31231 ft 427 kts 135°
2026-04-17 06:47 49.04671 10.66421 31233 ft 427 kts 136°
2026-04-17 06:47 49.00398 10.72710 31231 ft 427 kts 136°
2026-04-17 06:48 48.96114 10.78996 31228 ft 427 kts 136°
2026-04-17 06:48 48.91835 10.85261 31229 ft 427 kts 136°
2026-04-17 06:49 48.87546 10.91543 31235 ft 428 kts 135°
2026-04-17 06:49 48.83274 10.97786 31229 ft 427 kts 135°
2026-04-17 06:50 48.78991 11.04024 31231 ft 427 kts 135°
2026-04-17 06:50 48.74720 11.10226 31228 ft 427 kts 135°
2026-04-17 06:51 48.70411 11.16451 31231 ft 428 kts 135°
2026-04-17 06:51 48.66339 11.22942 31231 ft 427 kts 126°
2026-04-17 06:52 48.63295 11.30580 31229 ft 424 kts 111°
2026-04-17 06:52 48.61339 11.39066 31430 ft 434 kts 103°
2026-04-17 06:52 48.60448 11.43487 31593 ft 443 kts 103°
2026-04-17 06:53 48.59529 11.47958 31747 ft 451 kts 104°
2026-04-17 06:53 48.58576 11.52498 31895 ft 458 kts 104°
2026-04-17 06:53 48.57603 11.57097 32037 ft 465 kts 103°
2026-04-17 06:53 48.56735 11.61838 32238 ft 469 kts 100°
2026-04-17 06:54 48.56018 11.66594 32582 ft 470 kts 99°
2026-04-17 06:54 48.55321 11.71407 33020 ft 469 kts 99°
2026-04-17 06:54 48.54624 11.76239 33472 ft 468 kts 99°
2026-04-17 06:54 48.53938 11.80969 33884 ft 467 kts 99°
2026-04-17 06:55 48.53237 11.85760 34268 ft 467 kts 99°
2026-04-17 06:55 48.52536 11.90535 34636 ft 467 kts 99°
2026-04-17 06:55 48.51840 11.95253 34956 ft 466 kts 99°
2026-04-17 06:55 48.51127 12.00066 35274 ft 466 kts 99°
2026-04-17 06:56 48.50427 12.04779 35581 ft 466 kts 99°
2026-04-17 06:56 48.49718 12.09540 35876 ft 465 kts 99°
2026-04-17 06:56 48.49015 12.14237 36170 ft 464 kts 99°
2026-04-17 06:56 48.48303 12.18967 36446 ft 464 kts 99°
2026-04-17 06:57 48.47590 12.23691 36773 ft 463 kts 99°
2026-04-17 06:57 48.46877 12.28393 37110 ft 463 kts 99°
2026-04-17 06:57 48.46157 12.33127 37440 ft 462 kts 99°
2026-04-17 06:57 48.45447 12.37784 37758 ft 462 kts 99°
2026-04-17 06:58 48.44730 12.42482 38075 ft 461 kts 99°
2026-04-17 06:58 48.44002 12.47224 38374 ft 461 kts 99°
2026-04-17 06:58 48.43290 12.51858 38625 ft 461 kts 99°
2026-04-17 06:58 48.42570 12.56521 38853 ft 460 kts 99°
2026-04-17 06:59 48.41841 12.61240 39057 ft 460 kts 99°
2026-04-17 06:59 48.41118 12.65893 39213 ft 461 kts 100°
2026-04-17 06:59 48.40380 12.70633 39212 ft 461 kts 100°
2026-04-17 07:00 48.38582 12.79922 39222 ft 464 kts 106°
2026-04-17 07:00 48.36451 12.89080 39221 ft 465 kts 107°
2026-04-17 07:01 48.34318 12.98196 39236 ft 465 kts 107°
2026-04-17 07:01 48.32178 13.07343 39223 ft 464 kts 106°
2026-04-17 07:02 48.30041 13.16449 39227 ft 464 kts 106°
2026-04-17 07:02 48.27895 13.25562 39219 ft 464 kts 106°
2026-04-17 07:03 48.25752 13.34625 39224 ft 464 kts 106°
2026-04-17 07:03 48.23576 13.43698 39228 ft 464 kts 108°
2026-04-17 07:04 48.20876 13.52508 39228 ft 467 kts 116°
2026-04-17 07:04 48.17498 13.60806 39225 ft 468 kts 120°
2026-04-17 07:05 48.13972 13.68956 39224 ft 469 kts 121°
2026-04-17 07:05 48.10432 13.77141 39243 ft 469 kts 121°
2026-04-17 07:06 48.06902 13.85306 39232 ft 469 kts 121°
2026-04-17 07:06 48.03356 13.93494 39238 ft 470 kts 121°
2026-04-17 07:07 47.99794 14.01694 39224 ft 470 kts 121°
2026-04-17 07:07 47.96241 14.09854 39222 ft 469 kts 121°
2026-04-17 07:08 47.92697 14.17963 39229 ft 469 kts 121°
2026-04-17 07:08 47.89126 14.26113 39238 ft 469 kts 121°
2026-04-17 07:09 47.85551 14.34244 39216 ft 469 kts 121°
2026-04-17 07:09 47.82007 14.42282 39290 ft 469 kts 121°
2026-04-17 07:10 47.78393 14.50342 39480 ft 469 kts 121°
2026-04-17 07:10 47.76566 14.54351 39585 ft 469 kts 121°
2026-04-17 07:10 47.74756 14.58402 39589 ft 469 kts 120°
2026-04-17 07:11 47.71227 14.66485 39418 ft 469 kts 121°
2026-04-17 07:11 47.69457 14.70507 39301 ft 469 kts 121°
2026-04-17 07:11 47.67649 14.74587 39207 ft 469 kts 121°
2026-04-17 07:12 47.64056 14.82645 39220 ft 469 kts 121°
2026-04-17 07:12 47.60457 14.90670 39227 ft 470 kts 121°
2026-04-17 07:13 47.56834 14.98720 39215 ft 470 kts 121°
2026-04-17 07:13 47.53224 15.06721 39218 ft 470 kts 121°
2026-04-17 07:14 47.49568 15.14800 39217 ft 469 kts 121°
2026-04-17 07:14 47.45960 15.22744 39211 ft 469 kts 121°
2026-04-17 07:15 47.42310 15.30758 39208 ft 468 kts 121°
2026-04-17 07:15 47.38673 15.38726 39205 ft 469 kts 121°
2026-04-17 07:16 47.35054 15.46631 39217 ft 469 kts 121°
2026-04-17 07:16 47.31377 15.54637 39211 ft 469 kts 121°
2026-04-17 07:17 47.27748 15.62511 39214 ft 468 kts 121°
2026-04-17 07:17 47.22247 15.74414 39212 ft 469 kts 122°
2026-04-17 07:18 47.18557 15.82367 39208 ft 469 kts 122°
2026-04-17 07:18 47.14891 15.90247 39207 ft 469 kts 122°
2026-04-17 07:19 47.11222 15.98111 39210 ft 468 kts 122°
2026-04-17 07:19 47.07542 16.05977 39206 ft 469 kts 122°
2026-04-17 07:20 47.03855 16.13847 39200 ft 468 kts 121°
2026-04-17 07:20 47.00567 16.22008 39205 ft 466 kts 114°
2026-04-17 07:21 46.98011 16.30686 39193 ft 462 kts 105°
2026-04-17 07:21 46.96074 16.39625 39196 ft 461 kts 103°
2026-04-17 07:22 46.94201 16.48539 39177 ft 461 kts 103°
2026-04-17 07:22 46.92293 16.57467 39186 ft 462 kts 103°
2026-04-17 07:23 46.90362 16.66409 39183 ft 462 kts 104°
2026-04-17 07:23 46.88378 16.75415 39184 ft 462 kts 107°
2026-04-17 07:24 46.85865 16.84057 39175 ft 465 kts 115°
2026-04-17 07:24 46.82621 16.92231 39178 ft 466 kts 120°
2026-04-17 07:25 46.79149 17.00229 39176 ft 467 kts 120°
2026-04-17 07:25 46.75683 17.08221 39184 ft 466 kts 120°
2026-04-17 07:26 46.72230 17.16186 39182 ft 465 kts 120°
2026-04-17 07:26 46.68773 17.24147 39189 ft 465 kts 120°
2026-04-17 07:27 46.65315 17.32093 39183 ft 465 kts 120°
2026-04-17 07:27 46.61852 17.40029 39176 ft 465 kts 120°
2026-04-17 07:28 46.58390 17.47939 39184 ft 465 kts 120°
2026-04-17 07:28 46.54928 17.55826 39177 ft 464 kts 120°
2026-04-17 07:29 46.51448 17.63726 39178 ft 464 kts 120°
2026-04-17 07:29 46.47971 17.71601 39183 ft 464 kts 121°
2026-04-17 07:30 46.44477 17.79493 39180 ft 465 kts 121°
2026-04-17 07:30 46.40990 17.87349 39180 ft 464 kts 121°
2026-04-17 07:31 46.37503 17.95181 39190 ft 463 kts 121°
2026-04-17 07:31 46.34009 18.03006 39180 ft 463 kts 121°
2026-04-17 07:32 46.30529 18.10775 39187 ft 463 kts 121°
2026-04-17 07:32 46.27040 18.18546 39178 ft 463 kts 121°
2026-04-17 07:33 46.23520 18.26366 39173 ft 463 kts 122°
2026-04-17 07:33 46.20008 18.34145 39168 ft 463 kts 122°
2026-04-17 07:34 46.16490 18.41916 39167 ft 462 kts 122°
2026-04-17 07:34 46.12992 18.49622 39163 ft 462 kts 122°
2026-04-17 07:35 46.09480 18.57334 39172 ft 462 kts 122°
2026-04-17 07:35 46.05962 18.65037 39152 ft 462 kts 122°
2026-04-17 07:36 46.02405 18.72811 39173 ft 462 kts 122°
2026-04-17 07:36 45.98870 18.80515 39160 ft 462 kts 123°
2026-04-17 07:37 45.95347 18.88166 39158 ft 462 kts 123°
2026-04-17 07:37 45.91547 18.95588 39161 ft 462 kts 130°
2026-04-17 07:38 45.87305 19.02593 39160 ft 462 kts 131°
2026-04-17 07:38 45.83069 19.09518 39163 ft 462 kts 131°
2026-04-17 07:39 45.78844 19.16428 39164 ft 462 kts 131°
2026-04-17 07:39 45.74634 19.23309 39160 ft 460 kts 131°
2026-04-17 07:40 45.70438 19.30152 39156 ft 459 kts 131°
2026-04-17 07:40 45.66229 19.36999 39170 ft 459 kts 131°
2026-04-17 07:41 45.62006 19.43854 39151 ft 459 kts 131°
2026-04-17 07:41 45.57796 19.50667 39178 ft 458 kts 131°
2026-04-17 07:42 45.53597 19.57447 39147 ft 458 kts 131°
2026-04-17 07:42 45.49392 19.64221 39158 ft 458 kts 131°
2026-04-17 07:43 45.45135 19.71064 39155 ft 457 kts 132°
2026-04-17 07:43 45.40924 19.77812 39152 ft 457 kts 132°
2026-04-17 07:44 45.36683 19.84593 39169 ft 457 kts 132°
2026-04-17 07:44 45.32457 19.91332 39143 ft 456 kts 131°
2026-04-17 07:45 45.28250 19.98028 39148 ft 455 kts 131°
2026-04-17 07:45 45.24058 20.04683 39140 ft 455 kts 131°
2026-04-17 07:46 45.19825 20.11389 39144 ft 454 kts 132°
2026-04-17 07:46 45.15622 20.18032 39144 ft 454 kts 132°
2026-04-17 07:47 45.11422 20.24650 39145 ft 454 kts 132°
2026-04-17 07:47 45.07187 20.31307 39152 ft 455 kts 132°
2026-04-17 07:48 45.02965 20.37930 39139 ft 454 kts 132°
2026-04-17 07:48 44.98725 20.44565 39141 ft 454 kts 132°
2026-04-17 07:49 44.94490 20.51175 39144 ft 453 kts 132°
2026-04-17 07:49 44.90291 20.57716 39144 ft 452 kts 132°
2026-04-17 07:50 44.86054 20.64299 39134 ft 452 kts 132°
2026-04-17 07:50 44.81842 20.70829 39132 ft 452 kts 133°
2026-04-17 07:51 44.77607 20.77376 39126 ft 452 kts 133°
2026-04-17 07:51 44.73382 20.83898 39133 ft 453 kts 133°
2026-04-17 07:52 44.69132 20.90440 39120 ft 452 kts 133°
2026-04-17 07:52 44.64912 20.96920 39115 ft 451 kts 133°
2026-04-17 07:53 44.60680 21.03403 39124 ft 451 kts 133°
2026-04-17 07:53 44.56442 21.09879 39121 ft 450 kts 133°
2026-04-17 07:54 44.52227 21.16308 39126 ft 450 kts 133°
2026-04-17 07:54 44.47991 21.22753 39119 ft 449 kts 133°
2026-04-17 07:55 44.43763 21.29171 39124 ft 449 kts 133°
2026-04-17 07:55 44.39542 21.35565 39122 ft 448 kts 133°
2026-04-17 07:56 44.35322 21.41942 39121 ft 448 kts 133°
2026-04-17 07:56 44.31098 21.48318 39115 ft 447 kts 133°
2026-04-17 07:57 44.26919 21.54663 39120 ft 447 kts 133°
2026-04-17 07:57 44.22719 21.61032 39125 ft 447 kts 133°
2026-04-17 07:58 44.18483 21.67438 39114 ft 446 kts 134°
2026-04-17 07:58 44.14275 21.73784 39122 ft 445 kts 134°
2026-04-17 07:59 44.10093 21.80075 39117 ft 444 kts 134°
2026-04-17 07:59 44.05908 21.86356 39123 ft 444 kts 133°
2026-04-17 08:00 44.01705 21.92653 39118 ft 444 kts 133°
2026-04-17 08:00 43.97512 21.98920 39117 ft 443 kts 133°
2026-04-17 08:01 43.93308 22.05190 39118 ft 443 kts 133°
2026-04-17 08:01 43.89109 22.11438 39113 ft 443 kts 133°
2026-04-17 08:02 43.84904 22.17681 39112 ft 444 kts 133°
2026-04-17 08:02 43.80690 22.23923 39105 ft 443 kts 133°
2026-04-17 08:03 43.76491 22.30131 39108 ft 443 kts 133°
2026-04-17 08:03 43.72326 22.36348 39105 ft 443 kts 130°
2026-04-17 08:04 43.68566 22.43068 39109 ft 442 kts 124°
2026-04-17 08:04 43.65433 22.50303 39106 ft 441 kts 116°
2026-04-17 08:05 43.62672 22.57844 39110 ft 441 kts 116°
2026-04-17 08:05 43.59911 22.65388 39103 ft 441 kts 117°
2026-04-17 08:06 43.57128 22.72956 39102 ft 441 kts 117°
2026-04-17 08:06 43.54345 22.80492 39108 ft 441 kts 117°
2026-04-17 08:07 43.51578 22.87960 39106 ft 441 kts 117°
2026-04-17 08:07 43.48795 22.95455 39104 ft 440 kts 117°
2026-04-17 08:08 43.45999 23.02963 39104 ft 440 kts 117°
2026-04-17 08:08 43.43226 23.10388 39101 ft 440 kts 117°
2026-04-17 08:09 43.40421 23.17878 39100 ft 439 kts 117°
2026-04-17 08:09 43.37631 23.25311 39098 ft 440 kts 117°
2026-04-17 08:10 43.34826 23.32762 39097 ft 440 kts 117°
2026-04-17 08:10 43.32014 23.40210 39094 ft 440 kts 117°
2026-04-17 08:11 43.29201 23.47645 39092 ft 439 kts 117°
2026-04-17 08:11 43.26399 23.55028 39089 ft 439 kts 117°
2026-04-17 08:12 43.23571 23.62462 39087 ft 439 kts 117°
2026-04-17 08:12 43.20734 23.69898 39089 ft 438 kts 118°
2026-04-17 08:13 43.17925 23.77242 39089 ft 438 kts 118°
2026-04-17 08:14 43.13688 23.88286 39090 ft 438 kts 118°
2026-04-17 08:14 43.10853 23.95652 39089 ft 438 kts 118°
2026-04-17 08:15 43.08024 24.02983 39090 ft 438 kts 118°
2026-04-17 08:15 43.05168 24.10361 39093 ft 438 kts 118°
2026-04-17 08:16 43.02335 24.17667 39095 ft 437 kts 118°
2026-04-17 08:16 42.99482 24.25001 39098 ft 437 kts 118°
2026-04-17 08:17 42.96645 24.32276 39094 ft 437 kts 118°
2026-04-17 08:17 42.93793 24.39573 39095 ft 437 kts 118°
2026-04-17 08:18 42.90931 24.46877 39095 ft 437 kts 118°
2026-04-17 08:18 42.88042 24.54229 39094 ft 437 kts 118°
2026-04-17 08:19 42.85189 24.61469 39094 ft 436 kts 118°
2026-04-17 08:19 42.82303 24.68779 39093 ft 436 kts 119°
2026-04-17 08:20 42.79442 24.76010 39099 ft 436 kts 119°
2026-04-17 08:20 42.76551 24.83294 39096 ft 436 kts 119°
2026-04-17 08:21 42.73661 24.90559 39100 ft 436 kts 119°
2026-04-17 08:21 42.70773 24.97801 39094 ft 436 kts 119°
2026-04-17 08:22 42.67891 25.05008 39098 ft 436 kts 119°
2026-04-17 08:22 42.64995 25.12236 39093 ft 435 kts 119°
2026-04-17 08:23 42.62102 25.19436 39094 ft 435 kts 119°
2026-04-17 08:23 42.59205 25.26625 39092 ft 435 kts 119°
2026-04-17 08:24 42.56308 25.33799 39094 ft 435 kts 119°
2026-04-17 08:24 42.53405 25.40971 39086 ft 434 kts 119°
2026-04-17 08:25 42.50502 25.48126 39080 ft 433 kts 119°
2026-04-17 08:25 42.47591 25.55279 39083 ft 433 kts 119°
2026-04-17 08:26 42.44695 25.62380 39086 ft 433 kts 119°
2026-04-17 08:26 42.41761 25.69556 39090 ft 433 kts 120°
2026-04-17 08:27 42.38847 25.76665 39082 ft 433 kts 120°
2026-04-17 08:27 42.35931 25.83766 39085 ft 433 kts 120°
2026-04-17 08:28 42.32997 25.90891 39086 ft 433 kts 120°
2026-04-17 08:28 42.30071 25.97979 39084 ft 431 kts 120°
2026-04-17 08:28 42.28614 26.01503 38964 ft 432 kts 120°
2026-04-17 08:29 42.27142 26.05055 38681 ft 431 kts 120°
2026-04-17 08:29 42.25679 26.08583 38402 ft 431 kts 120°
2026-04-17 08:29 42.24233 26.12068 38117 ft 426 kts 120°
2026-04-17 08:29 42.22784 26.15557 37797 ft 423 kts 120°
2026-04-17 08:30 42.21337 26.19035 37476 ft 423 kts 120°
2026-04-17 08:30 42.19898 26.22488 37158 ft 424 kts 120°
2026-04-17 08:30 42.18459 26.25937 36852 ft 424 kts 120°
2026-04-17 08:30 42.17032 26.29358 36584 ft 425 kts 120°
2026-04-17 08:31 42.15579 26.32834 36351 ft 426 kts 120°
2026-04-17 08:31 42.14123 26.36313 36090 ft 426 kts 120°
2026-04-17 08:31 42.12674 26.39774 35718 ft 427 kts 121°
2026-04-17 08:31 42.11209 26.43267 35203 ft 429 kts 121°
2026-04-17 08:32 42.09734 26.46775 34584 ft 431 kts 121°
2026-04-17 08:32 42.08272 26.50251 33876 ft 432 kts 121°
2026-04-17 08:32 42.06785 26.53781 33199 ft 433 kts 121°
2026-04-17 08:32 42.05313 26.57273 32533 ft 433 kts 120°
2026-04-17 08:33 42.03839 26.60766 31863 ft 433 kts 120°
2026-04-17 08:33 42.02351 26.64287 31180 ft 432 kts 120°
2026-04-17 08:33 42.00871 26.67784 30503 ft 431 kts 121°
2026-04-17 08:33 41.99386 26.71290 30038 ft 429 kts 121°
2026-04-17 08:34 41.97930 26.74725 29594 ft 427 kts 121°
2026-04-17 08:34 41.96446 26.78184 29127 ft 423 kts 121°
2026-04-17 08:34 41.94939 26.81536 28665 ft 420 kts 122°
2026-04-17 08:34 41.93427 26.84849 28278 ft 416 kts 122°
2026-04-17 08:35 41.91905 26.88183 28126 ft 416 kts 122°
2026-04-17 08:35 41.90407 26.91475 27951 ft 414 kts 122°
2026-04-17 08:35 41.88911 26.94771 27765 ft 409 kts 122°
2026-04-17 08:35 41.87468 26.97949 27577 ft 396 kts 122°
2026-04-17 08:36 41.86060 27.01043 27465 ft 382 kts 122°
2026-04-17 08:36 41.84696 27.04037 27349 ft 369 kts 122°
2026-04-17 08:36 41.83378 27.06926 27237 ft 356 kts 122°
2026-04-17 08:36 41.82113 27.09694 27127 ft 344 kts 122°
2026-04-17 08:37 41.80891 27.12358 27066 ft 331 kts 124°
2026-04-17 08:37 41.79353 27.14555 27037 ft 312 kts 151°
2026-04-17 08:37 41.77366 27.15447 27055 ft 305 kts 177°
2026-04-17 08:37 41.75278 27.15160 27057 ft 302 kts 200°
2026-04-17 08:38 41.73445 27.13820 27054 ft 301 kts 222°
2026-04-17 08:38 41.72155 27.11664 27054 ft 300 kts 244°
2026-04-17 08:38 41.71585 27.08994 27055 ft 301 kts 267°
2026-04-17 08:38 41.71849 27.06200 27059 ft 304 kts 290°
2026-04-17 08:39 41.72815 27.03723 27069 ft 305 kts 300°
2026-04-17 08:39 41.73931 27.01305 27065 ft 304 kts 301°
2026-04-17 08:39 41.75032 26.98912 27064 ft 304 kts 300°
2026-04-17 08:39 41.76134 26.96487 27062 ft 303 kts 300°
2026-04-17 08:40 41.77220 26.94082 27062 ft 303 kts 300°
2026-04-17 08:40 41.78306 26.91666 27062 ft 303 kts 300°
2026-04-17 08:40 41.79409 26.89274 27058 ft 303 kts 306°
2026-04-17 08:40 41.80979 26.87382 27054 ft 306 kts 332°
2026-04-17 08:41 41.83019 26.86547 27062 ft 309 kts 356°
2026-04-17 08:41 41.85132 26.86891 27064 ft 312 kts 20°
2026-04-17 08:41 41.87005 26.88395 27066 ft 313 kts 45°
2026-04-17 08:41 41.88234 26.90762 27065 ft 314 kts 69°
2026-04-17 08:42 41.88638 26.93617 27065 ft 313 kts 94°
2026-04-17 08:42 41.88139 26.96426 27068 ft 311 kts 118°
2026-04-17 08:42 41.87046 26.98911 27074 ft 310 kts 123°
2026-04-17 08:42 41.85892 27.01365 27068 ft 310 kts 123°
2026-04-17 08:43 41.84765 27.03796 27066 ft 310 kts 122°
2026-04-17 08:43 41.83633 27.06273 27065 ft 310 kts 122°
2026-04-17 08:43 41.82523 27.08719 27064 ft 310 kts 122°
2026-04-17 08:43 41.81401 27.11200 27063 ft 311 kts 122°
2026-04-17 08:44 41.80187 27.13595 27052 ft 309 kts 137°
2026-04-17 08:44 41.78398 27.15101 27056 ft 306 kts 165°
2026-04-17 08:44 41.76306 27.15402 27060 ft 303 kts 189°
2026-04-17 08:44 41.74315 27.14572 27059 ft 301 kts 211°
2026-04-17 08:45 41.72722 27.12793 27057 ft 300 kts 233°
2026-04-17 08:45 41.71774 27.10335 27056 ft 300 kts 256°
2026-04-17 08:45 41.71618 27.07564 27057 ft 302 kts 278°
2026-04-17 08:45 41.72297 27.04899 27063 ft 304 kts 299°
2026-04-17 08:46 41.73393 27.02474 27066 ft 304 kts 301°
2026-04-17 08:46 41.74493 27.00088 27064 ft 304 kts 301°
2026-04-17 08:46 41.75599 26.97667 27062 ft 304 kts 300°
2026-04-17 08:46 41.76698 26.95238 27061 ft 304 kts 300°
2026-04-17 08:47 41.77776 26.92843 27062 ft 304 kts 300°
2026-04-17 08:47 41.78867 26.90414 27062 ft 304 kts 300°
2026-04-17 08:47 41.80157 26.88154 27046 ft 305 kts 320°
2026-04-17 08:47 41.82001 26.86804 27058 ft 308 kts 344°
2026-04-17 08:48 41.84131 26.86576 27063 ft 310 kts
2026-04-17 08:48 41.86148 26.87523 27065 ft 313 kts 32°
2026-04-17 08:48 41.87737 26.89538 27067 ft 314 kts 58°
2026-04-17 08:48 41.88559 26.92224 27064 ft 313 kts 82°
2026-04-17 08:49 41.88493 26.95092 27067 ft 312 kts 107°
2026-04-17 08:49 41.87592 26.97734 27077 ft 311 kts 122°
2026-04-17 08:49 41.86457 27.00166 27071 ft 310 kts 123°
2026-04-17 08:49 41.85308 27.02622 27066 ft 310 kts 123°
2026-04-17 08:50 41.84185 27.05060 27065 ft 310 kts 122°
2026-04-17 08:50 41.83060 27.07535 27064 ft 310 kts 122°
2026-04-17 08:50 41.81934 27.10022 27063 ft 311 kts 122°
2026-04-17 08:50 41.80814 27.12484 27065 ft 311 kts 125°
2026-04-17 08:51 41.79333 27.14532 27048 ft 308 kts 152°
2026-04-17 08:51 41.77325 27.15406 27061 ft 305 kts 178°
2026-04-17 08:51 41.75242 27.15102 27061 ft 302 kts 200°
2026-04-17 08:51 41.73406 27.13738 27055 ft 300 kts 223°
2026-04-17 08:52 41.72131 27.11564 27051 ft 300 kts 245°
2026-04-17 08:52 41.71587 27.08872 27051 ft 301 kts 268°
2026-04-17 08:52 41.71875 27.06118 27053 ft 303 kts 290°
2026-04-17 08:52 41.72863 27.03625 27064 ft 305 kts 300°
2026-04-17 08:53 41.73968 27.01227 27061 ft 304 kts 301°
2026-04-17 08:53 41.75081 26.98803 27060 ft 304 kts 300°
2026-04-17 08:53 41.76176 26.96394 27058 ft 305 kts 300°
2026-04-17 08:53 41.77272 26.93963 27058 ft 305 kts 300°
2026-04-17 08:54 41.78367 26.91526 27058 ft 304 kts 300°
2026-04-17 08:54 41.79487 26.89130 27052 ft 305 kts 308°
2026-04-17 08:54 41.81097 26.87295 27049 ft 307 kts 333°
2026-04-17 08:54 41.83152 26.86532 27059 ft 309 kts 358°
2026-04-17 08:55 41.85256 26.86948 27064 ft 311 kts 21°
2026-04-17 08:55 41.87095 26.88511 27065 ft 314 kts 46°
2026-04-17 08:55 41.88288 26.90931 27064 ft 314 kts 71°
2026-04-17 08:55 41.88637 26.93795 27062 ft 314 kts 96°
2026-04-17 08:56 41.88079 26.96602 27068 ft 312 kts 119°
2026-04-17 08:56 41.86974 26.99071 27073 ft 311 kts 123°
2026-04-17 08:56 41.85828 27.01509 27067 ft 311 kts 123°
2026-04-17 08:56 41.84685 27.03970 27064 ft 310 kts 122°
2026-04-17 08:57 41.83556 27.06440 27063 ft 310 kts 122°
2026-04-17 08:57 41.82437 27.08910 27062 ft 310 kts 122°
2026-04-17 08:57 41.81312 27.11399 27062 ft 310 kts 122°
2026-04-17 08:57 41.80160 27.13872 27073 ft 323 kts 124°
2026-04-17 08:58 41.78851 27.16421 27074 ft 344 kts 127°
2026-04-17 08:58 41.77415 27.19130 27072 ft 366 kts 125°
2026-04-17 08:58 41.75941 27.22006 27006 ft 379 kts 125°
2026-04-17 08:58 41.74432 27.24947 26501 ft 382 kts 125°
2026-04-17 08:59 41.72930 27.27869 25988 ft 381 kts 125°
2026-04-17 08:59 41.71436 27.30773 25517 ft 379 kts 126°
2026-04-17 08:59 41.69730 27.33419 25041 ft 376 kts 140°
2026-04-17 08:59 41.67591 27.35347 24593 ft 372 kts 154°
2026-04-17 09:00 41.65181 27.36508 24157 ft 368 kts 165°
2026-04-17 09:00 41.62715 27.37361 23715 ft 366 kts 166°
2026-04-17 09:00 41.60255 27.38180 23284 ft 365 kts 166°
2026-04-17 09:00 41.57798 27.39010 22857 ft 363 kts 166°
2026-04-17 09:01 41.55357 27.39849 22430 ft 361 kts 165°
2026-04-17 09:01 41.52932 27.40690 21997 ft 360 kts 165°
2026-04-17 09:01 41.50525 27.41526 21568 ft 359 kts 165°
2026-04-17 09:01 41.48099 27.42367 21288 ft 351 kts 165°
2026-04-17 09:02 41.45826 27.43329 21127 ft 340 kts 152°
2026-04-17 09:02 41.44022 27.45246 20974 ft 329 kts 128°
2026-04-17 09:02 41.42938 27.47870 20726 ft 326 kts 107°
2026-04-17 09:02 41.42665 27.50857 20304 ft 326 kts 85°
2026-04-17 09:03 41.43134 27.53793 19929 ft 325 kts 75°
2026-04-17 09:03 41.43740 27.56687 19547 ft 324 kts 75°
2026-04-17 09:03 41.44327 27.59536 19173 ft 322 kts 75°
2026-04-17 09:03 41.44908 27.62433 18807 ft 320 kts 75°
2026-04-17 09:04 41.45467 27.65275 18446 ft 319 kts 76°
2026-04-17 09:04 41.46025 27.68137 18079 ft 317 kts 76°
2026-04-17 09:04 41.46571 27.70958 17711 ft 316 kts 76°
2026-04-17 09:04 41.47121 27.73795 17337 ft 314 kts 76°
2026-04-17 09:05 41.47666 27.76620 16964 ft 313 kts 76°
2026-04-17 09:05 41.48204 27.79407 16593 ft 312 kts 76°
2026-04-17 09:05 41.48688 27.82235 16206 ft 311 kts 82°
2026-04-17 09:05 41.48844 27.85087 15914 ft 307 kts 91°
2026-04-17 09:06 41.48704 27.87897 15646 ft 307 kts 96°
2026-04-17 09:06 41.48481 27.90729 15285 ft 305 kts 96°
2026-04-17 09:06 41.48250 27.93519 14913 ft 304 kts 96°
2026-04-17 09:06 41.48023 27.96322 14530 ft 303 kts 96°
2026-04-17 09:07 41.47685 27.99064 14137 ft 302 kts 109°
2026-04-17 09:07 41.46629 28.01443 13747 ft 302 kts 132°
2026-04-17 09:07 41.45040 28.03250 13370 ft 300 kts 141°
2026-04-17 09:07 41.43372 28.04968 12986 ft 299 kts 141°
2026-04-17 09:08 41.41739 28.06656 12618 ft 297 kts 141°
2026-04-17 09:08 41.40126 28.08335 12254 ft 294 kts 142°
2026-04-17 09:08 41.38372 28.09643 11871 ft 294 kts 160°
2026-04-17 09:08 41.36358 28.10099 11498 ft 293 kts 176°
2026-04-17 09:09 41.34322 28.10139 11139 ft 291 kts 178°
2026-04-17 09:09 41.32307 28.10143 10778 ft 289 kts 178°
2026-04-17 09:09 41.30304 28.10155 10428 ft 287 kts 177°
2026-04-17 09:09 41.28327 28.10179 10150 ft 281 kts 177°
2026-04-17 09:10 41.24638 28.09452 10004 ft 265 kts 211°
2026-04-17 09:10 41.23254 28.07856 10008 ft 260 kts 223°
2026-04-17 09:10 41.21993 28.06158 9995 ft 256 kts 224°
2026-04-17 09:11 41.20749 28.04488 10002 ft 253 kts 224°
2026-04-17 09:11 41.19515 28.02868 10005 ft 251 kts 220°
2026-04-17 09:11 41.18151 28.01416 10006 ft 249 kts 212°
2026-04-17 09:11 41.16663 28.00209 10008 ft 247 kts 207°
2026-04-17 09:12 41.15163 27.99090 10008 ft 247 kts 207°
2026-04-17 09:12 41.13672 27.97991 10008 ft 247 kts 207°
2026-04-17 09:12 41.12154 27.96867 10009 ft 248 kts 207°
2026-04-17 09:12 41.10593 27.95879 10009 ft 247 kts 199°
2026-04-17 09:13 41.08975 27.95185 10010 ft 246 kts 193°
2026-04-17 09:13 41.07298 27.94611 10010 ft 246 kts 192°
2026-04-17 09:13 41.05642 27.94060 10011 ft 246 kts 192°
2026-04-17 09:13 41.03970 27.93502 10016 ft 246 kts 192°
2026-04-17 09:14 41.02301 27.93014 10013 ft 245 kts 187°
2026-04-17 09:14 41.00623 27.92809 10013 ft 243 kts 179°
2026-04-17 09:14 40.98921 27.92809 10013 ft 243 kts 178°
2026-04-17 09:14 40.97222 27.92840 10015 ft 243 kts 178°
2026-04-17 09:15 40.95542 27.93089 10002 ft 240 kts 158°
2026-04-17 09:15 40.94162 27.94285 10002 ft 237 kts 130°
2026-04-17 09:15 40.93353 27.96192 10011 ft 249 kts 104°
2026-04-17 09:15 40.93277 27.98506 10019 ft 257 kts 83°
2026-04-17 09:16 40.93550 28.00849 9988 ft 259 kts 82°
2026-04-17 09:16 40.93819 28.03226 9630 ft 260 kts 82°
2026-04-17 09:16 40.94075 28.05555 9291 ft 259 kts 82°
2026-04-17 09:16 40.94329 28.07903 8967 ft 257 kts 82°
2026-04-17 09:17 40.94582 28.10248 8658 ft 254 kts 82°
2026-04-17 09:17 40.94826 28.12536 8363 ft 252 kts 82°
2026-04-17 09:17 40.95068 28.14813 8066 ft 249 kts 82°
2026-04-17 09:17 40.95308 28.17077 7769 ft 246 kts 82°
2026-04-17 09:18 40.95544 28.19308 7481 ft 244 kts 82°
2026-04-17 09:18 40.95778 28.21533 7186 ft 241 kts 82°
2026-04-17 09:18 40.96007 28.23700 6901 ft 239 kts 81°
2026-04-17 09:18 40.96235 28.25868 6612 ft 236 kts 81°
2026-04-17 09:19 40.96461 28.28017 6311 ft 235 kts 81°
2026-04-17 09:19 40.96682 28.30125 6004 ft 234 kts 81°
2026-04-17 09:19 40.96905 28.32259 5693 ft 233 kts 81°
2026-04-17 09:19 40.97125 28.34365 5389 ft 231 kts 81°
2026-04-17 09:20 40.97345 28.36474 5086 ft 229 kts 81°
2026-04-17 09:20 40.97395 28.38541 4970 ft 222 kts 98°
2026-04-17 09:20 40.96842 28.40433 4972 ft 225 kts 115°
2026-04-17 09:20 40.96064 28.42239 4974 ft 225 kts 116°
2026-04-17 09:21 40.95280 28.44029 4969 ft 225 kts 116°
2026-04-17 09:21 40.94496 28.45826 4966 ft 225 kts 115°
2026-04-17 09:21 40.93722 28.47608 4960 ft 225 kts 115°
2026-04-17 09:21 40.92939 28.49417 4953 ft 225 kts 115°
2026-04-17 09:22 40.92157 28.51224 4953 ft 226 kts 115°
2026-04-17 09:22 40.91380 28.53020 4959 ft 226 kts 115°
2026-04-17 09:22 40.90604 28.54813 4956 ft 226 kts 115°
2026-04-17 09:22 40.89814 28.56643 4954 ft 227 kts 115°
2026-04-17 09:23 40.89259 28.58553 4940 ft 221 kts 90°
2026-04-17 09:23 40.89520 28.60478 4943 ft 204 kts 69°
2026-04-17 09:23 40.89990 28.62195 4949 ft 199 kts 70°
2026-04-17 09:23 40.90447 28.63913 4955 ft 198 kts 70°
2026-04-17 09:24 40.90902 28.65650 4964 ft 198 kts 71°
2026-04-17 09:24 40.91349 28.67369 4961 ft 198 kts 70°
2026-04-17 09:24 40.92011 28.68963 4950 ft 198 kts 49°
2026-04-17 09:24 40.93115 28.70060 4966 ft 200 kts 33°
2026-04-17 09:25 40.94318 28.70944 4966 ft 200 kts 32°
2026-04-17 09:25 40.95541 28.71828 4963 ft 199 kts 32°
2026-04-17 09:25 40.96767 28.72716 4962 ft 200 kts 30°
2026-04-17 09:25 40.98090 28.73279 4958 ft 204 kts 11°
2026-04-17 09:26 40.99523 28.73347 4967 ft 206 kts
2026-04-17 09:26 41.00972 28.73303 4967 ft 206 kts
2026-04-17 09:26 41.02407 28.73251 4911 ft 207 kts
2026-04-17 09:26 41.03861 28.73208 4709 ft 203 kts
2026-04-17 09:27 41.05236 28.73173 4492 ft 195 kts
2026-04-17 09:27 41.06575 28.73145 4210 ft 191 kts
2026-04-17 09:27 41.07888 28.73119 3935 ft 186 kts
2026-04-17 09:27 41.09171 28.73095 3669 ft 181 kts
2026-04-17 09:28 41.10413 28.73072 3417 ft 176 kts
2026-04-17 09:28 41.11619 28.73049 3174 ft 170 kts
2026-04-17 09:28 41.12796 28.73027 2948 ft 165 kts
2026-04-17 09:28 41.13914 28.73006 2738 ft 160 kts
2026-04-17 09:29 41.15016 28.72984 2523 ft 155 kts
2026-04-17 09:29 41.16079 28.72964 2326 ft 148 kts
2026-04-17 09:29 41.17044 28.72943 2131 ft 132 kts
2026-04-17 09:29 41.17926 28.72924 1961 ft 122 kts
2026-04-17 09:30 41.18763 28.72911 1803 ft 121 kts
2026-04-17 09:30 41.19611 28.72896 1648 ft 121 kts
2026-04-17 09:30 41.20461 28.72881 1493 ft 121 kts
2026-04-17 09:30 41.21296 28.72869 1332 ft 121 kts
2026-04-17 09:31 41.22134 28.72853 1149 ft 120 kts
2026-04-17 09:31 41.22968 28.72826 1008 ft 120 kts
2026-04-17 09:31 41.23808 28.72814 831 ft 119 kts
2026-04-17 09:31 41.24632 28.72801 681 ft 119 kts
2026-04-17 09:32 41.25470 28.72793 557 ft 118 kts
2026-04-17 09:32 41.26289 28.72774 382 ft 116 kts
2026-04-17 09:32 41.27049 28.72765 334 ft 93 kts 360°
2026-04-17 09:32 41.27539 28.72751 334 ft 53 kts 359°
2026-04-17 09:33 41.27834 28.72748 334 ft 37 kts
2026-04-17 09:33 41.28034 28.72819 334 ft 23 kts 27°
2026-04-17 09:33 41.28121 28.72897 334 ft 13 kts 64°
2026-04-17 09:33 41.28067 28.72966 334 ft 14 kts 178°
2026-04-17 09:34 41.27963 28.72967 334 ft 15 kts 180°
2026-04-17 09:34 41.27919 28.72968 334 ft 0 kts 179°
2026-04-17 09:34 41.27911 28.72968 334 ft 2 kts 179°
2026-04-17 09:35 41.27874 28.72969 334 ft 7 kts 178°
2026-04-17 09:35 41.27820 28.72972 334 ft 5 kts 177°
2026-04-17 09:35 41.27803 28.72973 334 ft 2 kts 177°
2026-04-17 09:35 41.27776 28.72974 334 ft 5 kts 180°
2026-04-17 09:36 41.27730 28.72972 334 ft 7 kts 181°
2026-04-17 09:36 41.27668 28.72973 334 ft 10 kts 179°
2026-04-17 09:36 41.27595 28.72995 334 ft 11 kts 131°
2026-04-17 09:36 41.27586 28.73105 334 ft 12 kts 89°
2026-04-17 09:37 41.27587 28.73229 334 ft 14 kts 89°
2026-04-17 09:37 41.27588 28.73351 334 ft 8 kts 89°
2026-04-17 09:37 41.27582 28.73403 334 ft 3 kts 139°
2026-04-17 09:37 41.27554 28.73411 334 ft 3 kts 176°
2026-04-17 09:38 41.27539 28.73412 334 ft 1 kts 180°
2026-04-17 09:38 41.27536 28.73412 334 ft 0 kts 180°